TITAN 3C TRANSTAGE DEB, 1883

Orbit data source: Space-Track

TITAN 3C TRANSTAGE DEB, 1883 is space debris in LEO originally from a launch on Fri, 15 Oct 1965 UTC launched from the Air Force Eastern Test Range (AFETR). Debris objects in space refer to the collection of defunct objects orbiting the Earth. Examples of debris include non-operational satellites, rocket bodies, and fragments generated from explosions, collisions, or faulty payload assembly.

Loading next visibility...
Identifier
1883, 1965-082EY
Orbit
LEO
Country
Flag of USUS
Related business
Manufacturer
Unknown
Mission
Spacecraft
Bus & Motor
Unknown
Mass
Unknown
Launch date (UTC)
1965-10-15 (60 years ago)
Launch vehicle
Unknown
Launch site
Air Force Eastern Test Range (AFETR)
Object type
Payload
Rocket body
Debris
Shape & HBR
Unknown shape, 0.1 m
Radar Cross Section
Small (<0.1 m²)

Expand to show TLE details & history
Last TLE update: 1 day ago

TLE from 1 day ago
0 TITAN 3C TRANSTAGE DEB
1 01883U 65082EY  25347.19710304  .00011746  00000-0  51221-3 0  9990
2 01883  32.0901 164.7318 0014386  33.6988 326.4585 15.20941805236937
Epoch: 2025-12-13T04:43Z
TLE epoch observation values (Epoch: 2025-12-13T04:43:49.702Z)
Latitude
-0.00006°
Longitude
11.64678°
Altitude
493.364 km
Speed
7.625 km/s
True Right ascension
10h 58m 55s
True Declination
0° 00' 00"
Sunlit
Object was in daylight at epoch
Visualization orbit readout
Latitude
Unknown
Longitude
Unknown
Altitude
Unknown
Speed
Unknown
Apparent Right ascension
Unknown
Apparent Declination
Unknown
Sunlit
N/A
Visualization observer readout
Local Sidereal Time
07:06:32
Azimuth
Unknown
Elevation
Unknown
Doppler factor
Unknown
Orbital elements
Apogee altitude
516.6 km
Perigee altitude
496.79 km
Semi-major axis
6,884.832 km
Eccentricity
0.00144
Inclination
32.0901°
RAAN
164.7318°
Arg. of periapsis
33.6988°
True anomaly
326.36728°
Mean anomaly
326.4585°
Eccentric anomaly
326.4129°
Mean motion
3.7993 °/min
Orbital period
94.75 mins
BSTAR
0.00051221

Documentation

Showing up to 5 results
|